Altus AFB, OK

10:29 PM CDT on October 23, 2019 (GMT -0500)
Altus Air Force Base

Weather History for KLTS - August, 2019

Change the Weather History Date:

Thursday, August 29, 2019

  Actual Average Record
Temperature  
Mean Temperature 84 °F -  
Max Temperature 98 °F 91 °F 102 °F (1999)
Min Temperature 70 °F 68 °F 60 °F (2012)
Cooling Degree Days 19    
Growing Degree Days 34 (Base 50)    
Moisture  
Dew Point 67 °F    
Average Humidity 63    
Maximum Humidity 94    
Minimum Humidity 33    
Precipitation  
Precipitation 0.00 in - - ()
Sea Level Pressure  
Sea Level Pressure 29.92 in    
Wind  
Wind Speed 10 mph ()    
Max Wind Speed 31 mph    
Max Gust Speed 45 mph    
Visibility 10.0 miles    
Events Thunderstorm    
Averages and records for this station are not official NWS values.
T = Trace of Precipitation, MM = Missing Value Source: Averaged Metar Reports

Daily Weather History Graph

Daily Weather History Graph

Search for Another Location

Airport or City:

Astronomy

Aug. 29, 2019 Rise Set
Actual Time 7:07 AM CDT 8:07 PM CDT
Civil Twilight 6:41 AM CDT 8:33 PM CDT
Nautical Twilight 6:11 AM CDT 9:04 PM CDT
Astronomical Twilight 5:39 AM CDT 9:35 PM CDT
Moon 6:00 AM CDT (8/29) 8:02 PM CDT (8/29)
Length of Visible Light 13h 51m
Length of Day
12h 59m
Waning Crescent, 1% of the Moon is Illuminated
Aug 29
Waning Crescent
Aug 30
New
Sep 5
First Quarter
Sep 13
Full
Sep 21
Last Quarter

Hourly Weather History & Observations

Time (CDT) Temp. Heat Index Dew Point Humidity Pressure Visibility Wind Dir Wind Speed Gust Speed Precip Events Conditions
12:56 AM 72.7 °F - 68.2 °F 86% 29.99 in 10.0 mi SSE 8.1 mph - N/A   Scattered Clouds
1:56 AM 73.4 °F - 68.2 °F 84% 30.00 in 10.0 mi SE 4.6 mph - N/A   Scattered Clouds
2:56 AM 73.2 °F - 68.4 °F 85% 29.99 in 10.0 mi SE 5.8 mph - N/A   Partly Cloudy
3:56 AM 73.8 °F - 68.5 °F 84% 29.98 in 10.0 mi SE 4.6 mph - N/A   Scattered Clouds
4:56 AM 72.1 °F - 68.7 °F 89% 29.98 in 10.0 mi SSE 5.8 mph - N/A   Partly Cloudy
5:56 AM 71.8 °F - 68.9 °F 91% 29.98 in 10.0 mi ESE 3.5 mph - N/A   Clear
6:56 AM 70.5 °F - 68.7 °F 94% 29.99 in 10.0 mi ESE 4.6 mph - N/A   Clear
9:56 AM 81.7 °F 85.8 °F 70.9 °F 70% 29.99 in 10.0 mi South 10.4 mph - N/A   Clear
10:56 AM 85.6 °F 90.4 °F 70.5 °F 60% 29.98 in 10.0 mi South 11.5 mph - N/A   Clear
11:56 AM 90.5 °F 95.5 °F 69.8 °F 50% 29.96 in 10.0 mi WSW 9.2 mph - N/A   Scattered Clouds
1:56 PM 95.4 °F 98.6 °F 66.4 °F 38% 29.92 in 10.0 mi SSW 8.1 mph - N/A   Scattered Clouds
2:56 PM 97.7 °F 100.6 °F 64.6 °F 34% 29.90 in 10.0 mi South 11.5 mph 18.4 mph N/A   Clear
3:56 PM 98.6 °F 101.6 °F 65.3 °F 33% 29.87 in 10.0 mi SSE 13.8 mph - N/A   Scattered Clouds
4:54 PM 95.0 °F 99.5 °F 68.0 °F 41% 29.85 in 10.0 mi SSE 10.4 mph - N/A   Mostly Cloudy
4:56 PM 93.9 °F 98.6 °F 68.5 °F 43% 29.85 in 10.0 mi SSE 10.4 mph - N/A   Mostly Cloudy
5:56 PM 90.7 °F 95.9 °F 70.0 °F 50% 29.84 in 10.0 mi SSE 9.2 mph - N/A   Mostly Cloudy
6:26 PM 89.6 °F 92.2 °F 66.2 °F 46% 29.86 in 10.0 mi SSW 17.3 mph 23.0 mph N/A   Mostly Cloudy
6:54 PM 87.8 °F 90.4 °F 66.2 °F 49% 29.89 in 10.0 mi South 23.0 mph 44.9 mph N/A   Mostly Cloudy
6:56 PM 88.0 °F 90.3 °F 65.8 °F 48% 29.89 in 10.0 mi South 31.1 mph 44.9 mph N/A   Mostly Cloudy
6:59 PM 86.0 °F 89.4 °F 68.0 °F 55% 29.89 in 10.0 mi South 29.9 mph 44.9 mph N/A   Light Drizzle
7:02 PM 86.0 °F 89.4 °F 68.0 °F 55% 29.89 in 10.0 mi South 29.9 mph 44.9 mph N/A Thunderstorm Light Drizzle
7:09 PM 82.4 °F 84.6 °F 66.2 °F 58% 29.90 in 10.0 mi SSW 28.8 mph 40.3 mph N/A Thunderstorm Mostly Cloudy
7:16 PM 80.6 °F 82.7 °F 66.2 °F 61% 29.90 in 10.0 mi South 18.4 mph 40.3 mph N/A Thunderstorm Thunderstorm
7:35 PM 80.6 °F 82.7 °F 66.2 °F 61% 29.91 in 10.0 mi South 19.6 mph 27.6 mph N/A Thunderstorm Thunderstorm
7:45 PM 78.8 °F - 64.4 °F 61% 29.90 in 10.0 mi South 17.3 mph 26.5 mph N/A Thunderstorm Mostly Cloudy
7:56 PM 78.4 °F - 65.1 °F 63% 29.90 in 10.0 mi South 15.0 mph - 0.00 in Thunderstorm Mostly Cloudy
8:53 PM 73.4 °F - 64.4 °F 73% 29.89 in 10.0 mi South 5.8 mph - N/A   Scattered Clouds
8:56 PM 73.4 °F - 64.6 °F 74% 29.89 in 10.0 mi South 5.8 mph - N/A   Scattered Clouds
9:56 PM 72.5 °F - 65.1 °F 78% 29.92 in 10.0 mi ESE 3.5 mph - N/A   Partly Cloudy
10:56 PM 72.9 °F - 67.6 °F 84% 29.93 in 10.0 mi SSE 5.8 mph - N/A   Clear